Вернуться в каталог

SL-8 R/B

АктивенPO
NORAD 32053·ROCKET BODY·🇷🇺 Russia

Запущен Sep 11, 2007 с Plesetsk Cosmodrome

Loading…

Ближайшие Пролёты (ближайшие 24 часа)

TLE

СвежийSource: Space-Track

Эпоха: Sep 14, 2026, 21:02 UTC

1 32053U 07038B   26257.87675466  .00000014  00000-0 -71343-6 0  9992
2 32053  82.9777 126.5245 0025629 320.5609  55.8955 13.76587685954998

Отслеживайте SL-8 R/B в реальном времени с AllMySat

Download on the App Store